Weather History for EGPU - November, 2013

Change the Weather History Date:

Friday, November 22, 2013

  Actual Average Record
Temperature  
Mean Temperature 41 °F -  
Max Temperature 48 °F 48 °F 53 °F (2011)
Min Temperature 34 °F 40 °F 33 °F (1996)
Degree Days  
Heating Degree Days 24    
Moisture  
Dew Point 38 °F    
Average Humidity 85    
Maximum Humidity 93    
Minimum Humidity 68    
Precipitation  
Precipitation 0.04 in 0.16 in - ()
Sea Level Pressure  
Sea Level Pressure 30.23 in    
Wind  
Wind Speed 5 mph ()    
Max Wind Speed 13 mph    
Max Gust Speed -    
Visibility 7.3 miles    
Events Rain    
Averages and records for this station are not official NWS values.
T = Trace of Precipitation, MM = Missing Value Source: Averaged Metar Reports

Daily Weather History Graph

Daily Weather History Graph

Search for Another Location

Airport or City:

Trip Planner

Search our weather history database for the weather conditions in past years. The results will help you decide how hot, cold, wet, or windy it might be!

Date:

Astronomy

Nov. 22, 2013 Rise Set
Actual Time 8:20 AM GMT 4:05 PM GMT
Civil Twilight 7:36 AM GMT 4:50 PM GMT
Nautical Twilight 6:49 AM GMT 5:37 PM GMT
Astronomical Twilight 6:04 AM GMT 6:22 PM GMT
Moon 8:39 PM GMT (11/22) 11:44 AM GMT (11/22)
Length of Visible Light 9h 13m
Length of Day
7h 44m
Waning Gibbous, 79% of the Moon is Illuminated
Nov 22
Waning Gibbous
Nov 25
Last Quarter
Dec 3
New
Dec 9
First Quarter
Dec 17
Full

Hourly Weather History & Observations

Time (GMT) Temp. Windchill Dew Point Humidity Pressure Visibility Wind Dir Wind Speed Gust Speed Precip Events Conditions
12:00 AM 38 °F - 31 °F 68% 30.18 in 16 mi East 6.9 mph - -   Mostly Cloudy
12:20 AM 39.2 °F 35.9 °F 32.0 °F 75% 30.18 in 6.2 mi ENE 4.6 mph - N/A   Overcast
12:50 AM 37.4 °F 34.9 °F 32.0 °F 81% 30.18 in 6.2 mi Variable 3.5 mph - N/A   Mostly Cloudy
1:20 AM 37.4 °F 34.9 °F 30.2 °F 75% 30.18 in 6.2 mi Variable 3.5 mph - N/A   Partly Cloudy
1:50 AM 37.4 °F - 30.2 °F 75% 30.18 in 6.2 mi East 2.3 mph - N/A   Unknown
2:20 AM 37.4 °F - 30.2 °F 75% 30.18 in 6.2 mi East 1.2 mph - N/A   Unknown
2:50 AM 35.6 °F - 30.2 °F 81% 30.18 in 6.2 mi East 2.3 mph - N/A   Unknown
3:20 AM 35.6 °F - 30.2 °F 81% 30.18 in 6.2 mi East 1.2 mph - N/A   Unknown
3:50 AM 35.6 °F - 30.2 °F 81% 30.18 in 6.2 mi East 2.3 mph - N/A   Unknown
4:20 AM 35.6 °F 31.7 °F 30.2 °F 81% 30.18 in 6.2 mi SE 4.6 mph - N/A   Unknown
4:50 AM 35.6 °F - 30.2 °F 81% 30.18 in 6.2 mi ESE 2.3 mph - N/A   Unknown
5:20 AM 35.6 °F - 30.2 °F 81% 30.18 in 6.2 mi Variable 1.2 mph - N/A   Scattered Clouds
5:50 AM 37.4 °F - 32.0 °F 81% 30.21 in 6.2 mi Variable 1.2 mph - N/A   Mostly Cloudy
6:00 AM 37 °F - 32 °F 75% 30.22 in 16 mi SSW 1.2 mph - -  
6:20 AM 37.4 °F - 32.0 °F 81% 30.21 in 6.2 mi Calm Calm - N/A   Mostly Cloudy
6:50 AM 39.2 °F - 32.0 °F 75% 30.21 in 6.2 mi SSW 1.2 mph - N/A   Overcast
7:20 AM 37.4 °F 34.9 °F 32.0 °F 81% 30.21 in 6.2 mi SSW 3.5 mph - N/A   Mostly Cloudy
7:50 AM 37.4 °F 33.8 °F 32.0 °F 81% 30.21 in 6.2 mi SW 4.6 mph - N/A   Mostly Cloudy
8:20 AM 37.4 °F 32.8 °F 33.8 °F 87% 30.21 in 6.2 mi SW 5.8 mph - N/A   Unknown
8:50 AM 37.4 °F 32.8 °F 33.8 °F 87% 30.21 in 6.2 mi SSW 5.8 mph - N/A   Scattered Clouds
9:00 AM 37 °F - 33 °F 79% 30.24 in 16 mi SSW 5.8 mph - -   Scattered Clouds
9:20 AM 39.2 °F 35.0 °F 33.8 °F 81% 30.24 in 6.2 mi SSW 5.8 mph - N/A   Scattered Clouds
9:50 AM 42.8 °F 39.3 °F 37.4 °F 81% 30.24 in 6.2 mi SSW 5.8 mph - N/A   Scattered Clouds
10:20 AM 42.8 °F 38.6 °F 39.2 °F 87% 30.24 in 6.2 mi SW 6.9 mph - N/A   Mostly Cloudy
10:50 AM 44.6 °F 42.2 °F 39.2 °F 81% 30.24 in 6.2 mi SW 4.6 mph - N/A   Scattered Clouds
11:20 AM 46.4 °F 42.4 °F 39.2 °F 76% 30.24 in 6.2 mi WSW 8.1 mph - N/A   Mostly Cloudy
11:50 AM 44.6 °F 38.4 °F 41.0 °F 87% 30.24 in 6.2 mi WSW 12.7 mph - N/A   Scattered Clouds
12:00 PM 44 °F - 41 °F 84% 30.24 in 12 mi WSW 12.7 mph - -   Mostly Cloudy
12:20 PM 44.6 °F 39.7 °F 42.8 °F 93% 30.24 in 6.2 mi WSW 9.2 mph - N/A   Scattered Clouds
12:50 PM 46.4 °F 42.9 °F 42.8 °F 87% 30.24 in 6.2 mi WSW 6.9 mph - N/A   Scattered Clouds
1:20 PM 46.4 °F 42.9 °F 42.8 °F 87% 30.24 in 6.2 mi SW 6.9 mph - N/A   Scattered Clouds
1:50 PM 46.4 °F 42.9 °F 42.8 °F 87% 30.21 in 6.2 mi WSW 6.9 mph - N/A   Scattered Clouds
2:20 PM 48.2 °F - 42.8 °F 82% 30.21 in 4.3 mi WSW 5.8 mph - N/A   Light Drizzle
2:50 PM 46.4 °F 44.3 °F 44.6 °F 93% 30.24 in 6.2 mi North 4.6 mph - N/A   Mostly Cloudy
3:00 PM 46 °F - 44 °F 89% 30.25 in 16 mi North 4.6 mph - - Rain Rain
3:20 PM 46.4 °F 44.3 °F 42.8 °F 87% 30.24 in 6.2 mi NNE 4.6 mph - N/A   Mostly Cloudy
3:50 PM 44.6 °F 41.4 °F 42.8 °F 93% 30.24 in 6.2 mi NNE 5.8 mph - N/A   Mostly Cloudy
4:20 PM 44.6 °F 39.7 °F 42.8 °F 93% 30.24 in 3.1 mi NW 9.2 mph - N/A Rain Rain Showers
4:50 PM 44.6 °F - 42.8 °F 93% 30.27 in 6.2 mi NNW 2.3 mph - N/A   Mostly Cloudy
5:20 PM 44.6 °F 42.2 °F 42.8 °F 93% 30.27 in - NNW 4.6 mph - N/A   Mostly Cloudy
5:50 PM 44.6 °F 39.7 °F 42.8 °F 93% 30.27 in 6.2 mi NNW 9.2 mph - N/A   Mostly Cloudy
6:00 PM 45 °F - 43 °F 88% 30.28 in 17 mi NNW 9.2 mph - - Rain Rain
6:20 PM 44.6 °F 40.7 °F 41.0 °F 87% 30.27 in 6.2 mi NNW 6.9 mph - N/A   Mostly Cloudy
6:50 PM 42.8 °F 41.1 °F 41.0 °F 93% 30.27 in 6.2 mi WNW 3.5 mph - N/A   Mostly Cloudy
7:20 PM 44.6 °F 40.7 °F 41.0 °F 87% 30.27 in 6.2 mi NW 6.9 mph - N/A   Mostly Cloudy
7:50 PM 44.6 °F 40.2 °F 42.8 °F 93% 30.27 in 6.2 mi NNW 8.1 mph - N/A Rain Light Rain Showers
8:20 PM 44.6 °F 42.2 °F 42.8 °F 93% 30.27 in 6.2 mi WNW 4.6 mph - N/A   Mostly Cloudy
8:50 PM 42.8 °F 38.6 °F 39.2 °F 87% 30.27 in 6.2 mi NW 6.9 mph - N/A   Scattered Clouds
9:00 PM 42 °F - 40 °F 88% 30.27 in 16 mi NW 6.9 mph - - Rain Rain
9:20 PM 44.6 °F 41.4 °F 42.8 °F 93% 30.27 in 6.2 mi NW 5.8 mph - N/A Rain Light Rain Showers
9:50 PM 44.6 °F 40.7 °F 42.8 °F 93% 30.27 in 6.2 mi NW 6.9 mph - N/A   Mostly Cloudy
10:20 PM 44.6 °F 38.8 °F 42.8 °F 93% 30.27 in 6.2 mi North 11.5 mph - N/A   Mostly Cloudy
10:50 PM 41.0 °F 36.4 °F 39.2 °F 93% 30.27 in 6.2 mi NNW 6.9 mph - N/A   Mostly Cloudy
11:20 PM 42.8 °F 38.0 °F 41.0 °F 93% 30.27 in 6.2 mi NW 8.1 mph - N/A   Scattered Clouds
11:50 PM 44.6 °F 39.2 °F 42.8 °F 93% 30.27 in 3.7 mi WNW 10.4 mph - N/A Rain Light Rain Showers